Air Force Academy, CO

11:08 AM MDT on May 24, 2017 (GMT -0600)
Usaf Academy

Weather History for KAFF - April, 2012

Change the Weather History Date:

Tuesday, April 3, 2012

  Actual Average Record
Temperature  
Mean Temperature 30 °F -  
Max Temperature 32 °F 51 °F 66 °F (2001)
Min Temperature 28 °F 27 °F 17 °F (2002)
Degree Days  
Heating Degree Days 35    
Moisture  
Dew Point 27 °F    
Average Humidity 86    
Maximum Humidity 93    
Minimum Humidity 75    
Precipitation  
Precipitation 0.02 in - - ()
Sea Level Pressure  
Sea Level Pressure 30.12 in    
Wind  
Wind Speed 23 mph (NNW)    
Max Wind Speed 30 mph    
Max Gust Speed 43 mph    
Visibility 6 miles    
Events Rain , Snow    
Averages and records for this station are not official NWS values.
T = Trace of Precipitation, MM = Missing Value Source: NWS Daily Summary

Daily Weather History Graph

Daily Weather History Graph

Search for Another Location

Airport or City:

Trip Planner

Search our weather history database for the weather conditions in past years. The results will help you decide how hot, cold, wet, or windy it might be!

Date:

Astronomy

Apr. 03, 2012 Rise Set
Actual Time 6:39 AM MDT 7:25 PM MDT
Civil Twilight 6:12 AM MDT 7:52 PM MDT
Nautical Twilight 5:41 AM MDT 8:24 PM MDT
Astronomical Twilight 5:08 AM MDT 8:57 PM MDT
Moon 4:13 PM MDT (4/3) 4:27 AM MDT (4/3)
Length of Visible Light 13h 39m
Length of Day
12h 45m
Waxing Gibbous, 87% of the Moon is Illuminated
Apr 3
Waxing Gibbous
Apr 6
Full
Apr 13
Last Quarter
Apr 21
New
Apr 29
First Quarter

Hourly Weather History & Observations

Time (MDT) Temp. Windchill Dew Point Humidity Pressure Visibility Wind Dir Wind Speed Gust Speed Precip Events Conditions
12:01 AM 32.0 °F 19.5 °F 28.4 °F 87% 30.09 in 10.0 mi NW 21.9 mph 35.7 mph N/A Rain Light Freezing Rain
12:08 AM 32.0 °F 19.2 °F 28.4 °F 87% 30.09 in 10.0 mi NW 23.0 mph 29.9 mph N/A Rain Light Freezing Rain
12:09 AM 32.0 °F 19.2 °F 28.4 °F 87% 30.09 in 10.0 mi NNW 23.0 mph 29.9 mph N/A Rain Light Freezing Rain
12:17 AM 32.0 °F 19.2 °F 28.4 °F 87% 30.09 in 10.0 mi NNW 23.0 mph 29.9 mph N/A Rain Light Freezing Rain
12:20 AM 32.0 °F 19.2 °F 28.4 °F 87% 30.10 in 10.0 mi NNW 23.0 mph 31.1 mph N/A   Overcast
12:26 AM 32.0 °F 18.9 °F 28.4 °F 87% 30.10 in 10.0 mi NNW 24.2 mph 33.4 mph N/A   Overcast
12:27 AM 32.0 °F 18.9 °F 28.4 °F 87% 30.10 in 10.0 mi NNW 24.2 mph 33.4 mph N/A   Overcast
12:31 AM 32.0 °F 18.9 °F 28.4 °F 87% 30.09 in 10.0 mi NNW 24.2 mph 33.4 mph N/A Rain Light Freezing Rain
12:51 AM 32.0 °F 18.6 °F 28.4 °F 87% 30.10 in 8.0 mi NW 25.3 mph 35.7 mph N/A Rain Light Freezing Rain
12:52 AM 32.0 °F 18.9 °F 28.4 °F 87% 30.10 in 8.0 mi NNW 24.2 mph 35.7 mph N/A   Overcast
12:54 AM 32.0 °F 19.2 °F 28.4 °F 87% 30.10 in 8.0 mi NNW 23.0 mph 35.7 mph N/A Rain Light Freezing Rain
12:55 AM 31.5 °F 18.5 °F 28.0 °F 87% 30.10 in 8.0 mi NNW 23.0 mph 33.4 mph 0.00 in Rain Light Freezing Rain
12:56 AM 32.0 °F 19.5 °F 28.4 °F 87% 30.10 in 8.0 mi NNW 21.9 mph 33.4 mph N/A Rain Light Freezing Rain
12:57 AM 32.0 °F 18.4 °F 28.4 °F 87% 30.09 in 8.0 mi NNW 26.5 mph 33.4 mph N/A Rain Light Freezing Rain
12:58 AM 32.0 °F 18.4 °F 28.4 °F 87% 30.10 in 8.0 mi NNW 26.5 mph 35.7 mph N/A Rain Light Freezing Rain
1:02 AM 32.0 °F 18.4 °F 28.4 °F 87% 30.09 in 10.0 mi NNW 26.5 mph 35.7 mph N/A Rain Light Freezing Rain
1:09 AM 32.0 °F 17.6 °F 26.6 °F 80% 30.09 in 10.0 mi NW 29.9 mph 36.8 mph N/A Rain Light Freezing Rain
1:11 AM 32.0 °F 18.6 °F 26.6 °F 80% 30.09 in 10.0 mi NNW 25.3 mph 36.8 mph N/A   Overcast
1:29 AM 32.0 °F 18.1 °F 28.4 °F 87% 30.09 in 7.0 mi NW 27.6 mph 35.7 mph N/A Rain Light Freezing Rain
1:41 AM 32.0 °F 18.1 °F 28.4 °F 87% 30.08 in 4.0 mi NW 27.6 mph 33.4 mph N/A Rain Light Freezing Rain
1:44 AM 32.0 °F 18.1 °F 28.4 °F 87% 30.08 in 3.0 mi NNW 27.6 mph 35.7 mph N/A Rain Light Freezing Rain
1:47 AM 32.0 °F 19.2 °F 28.4 °F 87% 30.08 in 3.0 mi NNW 23.0 mph 39.1 mph N/A   Overcast
1:55 AM 30.9 °F 17.8 °F 28.0 °F 89% 30.07 in 3.0 mi NNW 23.0 mph 39.1 mph 0.00 in   Overcast
1:59 AM 30.2 °F 16.5 °F 28.4 °F 93% 30.07 in 4.0 mi NW 24.2 mph 36.8 mph N/A   Overcast
2:15 AM 30.2 °F 16.5 °F 28.4 °F 93% 30.06 in 3.0 mi NNW 24.2 mph 33.4 mph N/A   Overcast
2:26 AM 30.2 °F 16.8 °F 28.4 °F 93% 30.06 in 4.0 mi NW 23.0 mph 38.0 mph N/A   Overcast
2:31 AM 30.2 °F 16.2 °F 28.4 °F 93% 30.05 in 3.0 mi NW 25.3 mph 39.1 mph N/A   Overcast
2:34 AM 30.2 °F 15.7 °F 28.4 °F 93% 30.05 in 2.5 mi NW 27.6 mph 39.1 mph N/A   Overcast
2:37 AM 30.2 °F 16.8 °F 28.4 °F 93% 30.05 in 2.0 mi NW 23.0 mph 39.1 mph N/A   Overcast
2:53 AM 30.2 °F 15.9 °F 28.4 °F 93% 30.04 in 2.0 mi NNW 26.5 mph 39.1 mph N/A   Overcast
2:55 AM 30.6 °F 15.9 °F 28.0 °F 90% 30.04 in 2.0 mi NW 28.8 mph 39.1 mph 0.00 in   Overcast
2:58 AM 30.2 °F 16.5 °F 28.4 °F 93% 30.04 in 1.8 mi NNW 24.2 mph 39.1 mph N/A   Overcast
3:55 AM 29.8 °F 15.2 °F 27.9 °F 92% 29.98 in 1.2 mi NNW 27.6 mph 39.1 mph 0.00 in Snow Light Snow
4:21 AM 30.2 °F 16.5 °F 28.4 °F 93% 29.99 in 2.0 mi NW 24.2 mph 34.5 mph N/A Snow Light Snow
4:26 AM 30.2 °F 16.2 °F 28.4 °F 93% 29.99 in 2.5 mi NNW 25.3 mph 36.8 mph N/A Snow Light Snow
4:36 AM 30.2 °F 16.2 °F 28.4 °F 93% 29.99 in 3.0 mi NW 25.3 mph 38.0 mph N/A Snow Light Snow
4:41 AM 30.2 °F 16.8 °F 28.4 °F 93% 29.99 in 4.0 mi NNW 23.0 mph 38.0 mph N/A Snow Light Snow
4:45 AM 30.2 °F 15.7 °F 26.6 °F 86% 29.99 in 5.0 mi NW 27.6 mph 39.1 mph N/A Snow Light Snow
4:55 AM 30.4 °F 15.7 °F 26.8 °F 86% 29.99 in 6.0 mi NW 28.8 mph 39.1 mph 0.00 in   Overcast
5:11 AM 32.0 °F 18.6 °F 26.6 °F 80% 29.99 in 6.0 mi NW 25.3 mph 42.6 mph N/A Snow Light Snow
5:55 AM 29.8 °F 16.6 °F 25.0 °F 82% 30.06 in 7.0 mi NW 21.9 mph 40.3 mph 0.00 in Snow Light Snow
6:17 AM 30.2 °F 16.8 °F 26.6 °F 86% 30.07 in 6.0 mi NNW 23.0 mph 33.4 mph N/A Snow Light Snow
6:55 AM 29.1 °F 15.1 °F 26.2 °F 89% 30.08 in 2.0 mi NNW 24.2 mph 34.5 mph 0.01 in Snow Light Snow
7:01 AM 28.4 °F 13.8 °F 26.6 °F 93% 30.09 in 3.0 mi NNW 25.3 mph 36.8 mph N/A   Overcast
7:14 AM 30.2 °F 16.2 °F 24.8 °F 80% 30.10 in 2.5 mi NW 25.3 mph 38.0 mph N/A Snow Light Snow
7:50 AM 30.2 °F 15.9 °F 26.6 °F 86% 30.13 in 6.0 mi NW 26.5 mph 33.4 mph N/A Snow Light Snow
7:55 AM 29.5 °F 15.5 °F 25.9 °F 86% 30.13 in 5.0 mi NW 24.2 mph 33.4 mph 0.00 in Snow Light Snow
8:55 AM 29.5 °F 14.5 °F 25.5 °F 85% 30.13 in 6.0 mi NNW 28.8 mph 35.7 mph 0.01 in Snow Light Snow
9:55 AM 29.5 °F 14.5 °F 24.8 °F 83% 30.16 in 3.0 mi NNW 28.8 mph 41.4 mph 0.00 in Snow Light Snow
9:57 AM 30.2 °F 15.9 °F 24.8 °F 80% 30.16 in 4.0 mi NW 26.5 mph 41.4 mph N/A Snow Light Snow
10:55 AM 29.8 °F 16.6 °F 25.3 °F 83% 30.21 in 1.2 mi NNW 21.9 mph 38.0 mph 0.00 in Snow Light Snow
11:01 AM 30.2 °F 17.8 °F 24.8 °F 80% 30.21 in 1.0 mi NNW 19.6 mph 35.7 mph N/A Snow Light Snow
11:13 AM 30.2 °F 18.1 °F 26.6 °F 86% 30.21 in 2.0 mi NNW 18.4 mph 31.1 mph N/A   Overcast
11:24 AM 30.2 °F 17.8 °F 26.6 °F 86% 30.22 in 1.8 mi NW 19.6 mph 32.2 mph N/A Snow Light Snow
11:34 AM 30.2 °F 16.8 °F 26.6 °F 86% 30.22 in 0.8 mi NNW 23.0 mph 29.9 mph N/A Snow Light Snow
11:39 AM 30.2 °F 18.5 °F 26.6 °F 86% 30.22 in 1.0 mi NNW 17.3 mph 29.9 mph N/A Snow Light Snow
11:49 AM 30.2 °F 17.8 °F 26.6 °F 86% 30.21 in 1.8 mi NNW 19.6 mph 29.9 mph N/A Snow Light Snow
11:52 AM 30.2 °F 17.1 °F 26.6 °F 86% 30.21 in 2.0 mi NNW 21.9 mph 29.9 mph N/A Snow Light Snow
11:55 AM 30.2 °F 17.8 °F 26.4 °F 86% 30.21 in 2.5 mi NNW 19.6 mph 31.1 mph 0.00 in Snow Light Snow
11:56 AM 30.2 °F 16.8 °F 26.6 °F 86% 30.21 in 3.0 mi NW 23.0 mph 33.4 mph N/A Snow Light Snow
12:00 PM 30.2 °F 16.8 °F 26.6 °F 86% 30.21 in 4.0 mi NNW 23.0 mph 33.4 mph N/A Snow Light Snow
12:03 PM 30.2 °F 16.5 °F 26.6 °F 86% 30.21 in 5.0 mi NNW 24.2 mph 33.4 mph N/A Snow Light Snow
12:13 PM 30.2 °F 17.1 °F 24.8 °F 80% 30.20 in 10.0 mi NNW 21.9 mph 32.2 mph N/A   Mostly Cloudy
12:55 PM 32.2 °F 19.1 °F 25.0 °F 75% 30.17 in 10.0 mi NNW 24.2 mph 34.5 mph 0.00 in   Mostly Cloudy
1:07 PM 32.0 °F 18.4 °F 26.6 °F 80% 30.17 in 10.0 mi NW 26.5 mph 33.4 mph N/A   Mostly Cloudy
1:12 PM 32.0 °F 20.1 °F 26.6 °F 80% 30.17 in 10.0 mi NNW 19.6 mph 33.4 mph N/A   Mostly Cloudy
1:14 PM 32.0 °F 18.9 °F 26.6 °F 80% 30.16 in 10.0 mi NW 24.2 mph 33.4 mph N/A Rain Light Rain
1:17 PM 32.0 °F 18.4 °F 26.6 °F 80% 30.16 in 10.0 mi NNW 26.5 mph 33.4 mph N/A Rain Light Rain
1:19 PM 32.0 °F 19.5 °F 26.6 °F 80% 30.16 in 10.0 mi NNW 21.9 mph 33.4 mph N/A Rain Light Rain
1:37 PM 32.0 °F 18.9 °F 24.8 °F 75% 30.16 in 10.0 mi NNW 24.2 mph 31.1 mph N/A   Overcast
1:48 PM 32.0 °F 19.5 °F 24.8 °F 75% 30.16 in 10.0 mi NNW 21.9 mph 35.7 mph N/A Rain Light Rain
1:55 PM 32.4 °F 20.0 °F 25.3 °F 75% 30.16 in 8.0 mi NW 21.9 mph 33.4 mph 0.00 in Snow Light Snow
2:10 PM 32.0 °F 19.8 °F 26.6 °F 80% 30.16 in 5.0 mi NNW 20.7 mph 31.1 mph N/A Rain Light Rain
2:11 PM 32.0 °F 19.5 °F 26.6 °F 80% 30.16 in 5.0 mi NNW 21.9 mph 31.1 mph N/A Rain Light Rain
2:13 PM 32.0 °F 19.2 °F 26.6 °F 80% 30.16 in 4.0 mi NNW 23.0 mph 31.1 mph N/A   Overcast
2:16 PM 32.0 °F 19.2 °F 24.8 °F 75% 30.16 in 3.0 mi NNW 23.0 mph 31.1 mph N/A Snow Light Snow
2:21 PM 32.0 °F 18.9 °F 26.6 °F 80% 30.15 in 2.5 mi NNW 24.2 mph 33.4 mph N/A Snow Light Snow
2:22 PM 32.0 °F 18.9 °F 26.6 °F 80% 30.15 in 2.5 mi NNW 24.2 mph 33.4 mph N/A Snow Light Snow
2:26 PM 32.0 °F 19.2 °F 26.6 °F 80% 30.15 in 1.8 mi NNW 23.0 mph 33.4 mph N/A   Overcast
2:30 PM 32.0 °F 19.2 °F 26.6 °F 80% 30.15 in 1.5 mi NW 23.0 mph 33.4 mph N/A   Overcast
2:41 PM 32.0 °F 19.2 °F 26.6 °F 80% 30.17 in 1.2 mi NNW 23.0 mph 29.9 mph N/A Rain Light Freezing Rain
2:47 PM 30.2 °F 17.1 °F 26.6 °F 86% 30.17 in 1.2 mi NNW 21.9 mph 32.2 mph N/A Rain Light Freezing Rain
2:55 PM 30.9 °F 18.7 °F 27.5 °F 87% 30.18 in 1.2 mi NNW 19.6 mph 32.2 mph 0.00 in Rain Light Freezing Rain
3:00 PM 30.2 °F 18.1 °F 28.4 °F 93% 30.18 in 1.5 mi NNW 18.4 mph 28.8 mph N/A   Overcast
3:04 PM 30.2 °F 17.8 °F 28.4 °F 93% 30.18 in 2.0 mi NNW 19.6 mph 28.8 mph N/A Snow Light Snow
3:15 PM 30.2 °F 17.1 °F 26.6 °F 86% 30.18 in 3.0 mi NNW 21.9 mph 27.6 mph N/A Snow Light Snow
3:19 PM 30.2 °F 17.8 °F 26.6 °F 86% 30.18 in 2.5 mi NNW 19.6 mph 28.8 mph N/A Snow Light Snow
3:25 PM 30.2 °F 17.4 °F 28.4 °F 93% 30.17 in 1.8 mi NNW 20.7 mph 28.8 mph N/A Snow Light Snow
3:30 PM 30.2 °F 17.8 °F 28.4 °F 93% 30.17 in 2.0 mi NW 19.6 mph 28.8 mph N/A Snow Light Snow
3:34 PM 32.0 °F 20.8 °F 28.4 °F 87% 30.17 in 3.0 mi NNW 17.3 mph 27.6 mph N/A Snow Light Snow
3:35 PM 32.0 °F 20.5 °F 28.4 °F 87% 30.17 in 4.0 mi NW 18.4 mph 27.6 mph N/A Snow Light Snow
3:37 PM 32.0 °F 20.5 °F 28.4 °F 87% 30.17 in 5.0 mi NNW 18.4 mph 26.5 mph N/A Snow Light Snow
3:47 PM 32.0 °F 20.1 °F 28.4 °F 87% 30.17 in 4.0 mi NW 19.6 mph 26.5 mph N/A Snow Light Snow
3:55 PM 31.8 °F 20.2 °F 28.0 °F 86% 30.17 in 4.0 mi NNW 18.4 mph 29.9 mph 0.00 in Snow Light Snow
4:00 PM 32.0 °F 19.5 °F 28.4 °F 87% 30.17 in 5.0 mi NNW 21.9 mph 29.9 mph N/A Snow Light Snow
4:15 PM 32.0 °F 20.5 °F 28.4 °F 87% 30.17 in 9.0 mi NW 18.4 mph 29.9 mph N/A   Mostly Cloudy
4:22 PM 32.0 °F 20.5 °F 28.4 °F 87% 30.16 in 10.0 mi NNW 18.4 mph 27.6 mph N/A   Scattered Clouds
4:23 PM 32.0 °F 20.1 °F 28.4 °F 87% 30.16 in 10.0 mi NNW 19.6 mph 27.6 mph N/A   Mostly Cloudy
4:29 PM 32.0 °F 19.8 °F 28.4 °F 87% 30.16 in 7.0 mi NNW 20.7 mph 24.2 mph N/A Snow Light Snow
4:35 PM 32.0 °F 20.1 °F 28.4 °F 87% 30.15 in 5.0 mi NNW 19.6 mph 27.6 mph N/A Snow Light Snow
4:51 PM 32.0 °F 20.5 °F 26.6 °F 80% 30.15 in 10.0 mi NNW 18.4 mph 27.6 mph N/A   Overcast
4:55 PM 32.0 °F 20.5 °F 27.3 °F 83% 30.12 in 10.0 mi NNW 18.4 mph 27.6 mph 0.00 in   Mostly Cloudy
5:02 PM 32.0 °F 20.5 °F 26.6 °F 80% 30.11 in 10.0 mi NNW 18.4 mph 27.6 mph N/A   Mostly Cloudy
5:06 PM 32.0 °F 20.5 °F 26.6 °F 80% 30.11 in 10.0 mi NNW 18.4 mph 27.6 mph N/A   Scattered Clouds
5:25 PM 32.0 °F 19.2 °F 26.6 °F 80% 30.10 in 10.0 mi North 23.0 mph 29.9 mph N/A   Partly Cloudy
5:55 PM 32.2 °F 18.9 °F 26.6 °F 80% 30.12 in 10.0 mi NNW 25.3 mph 34.5 mph 0.00 in   Mostly Cloudy
6:15 PM 32.0 °F 20.1 °F 26.6 °F 80% 30.13 in 10.0 mi North 19.6 mph 26.5 mph N/A   Mostly Cloudy
6:18 PM 32.0 °F 19.5 °F 26.6 °F 80% 30.13 in 10.0 mi North 21.9 mph 32.2 mph N/A   Mostly Cloudy
6:40 PM 32.0 °F 18.9 °F 26.6 °F 80% 30.12 in 10.0 mi North 24.2 mph - N/A   Mostly Cloudy
6:55 PM 31.3 °F 17.4 °F 27.3 °F 85% 30.12 in 10.0 mi North 26.5 mph 31.1 mph 0.00 in   Partly Cloudy
7:27 PM 32.0 °F 18.6 °F 28.4 °F 87% 30.11 in 10.0 mi North 25.3 mph - N/A   Clear
7:55 PM 30.7 °F 16.9 °F 27.9 °F 89% 30.10 in 10.0 mi North 25.3 mph 28.8 mph 0.00 in   Clear
8:06 PM 30.2 °F 18.1 °F 28.4 °F 93% 30.12 in 10.0 mi North 18.4 mph 25.3 mph N/A   Clear
8:55 PM 31.1 °F 19.3 °F 27.7 °F 87% 30.11 in 10.0 mi North 18.4 mph - 0.00 in   Clear
9:00 PM 32.0 °F 20.5 °F 26.6 °F 80% 30.11 in 10.0 mi NNE 18.4 mph - N/A   Clear
9:31 PM 32.0 °F 20.1 °F 26.6 °F 80% 30.14 in 10.0 mi North 19.6 mph 25.3 mph N/A   Partly Cloudy
9:40 PM 32.0 °F 20.5 °F 28.4 °F 87% 30.14 in 7.0 mi NNW 18.4 mph - N/A Snow Light Snow
9:48 PM 30.2 °F 18.5 °F 28.4 °F 93% 30.14 in 4.0 mi NNW 17.3 mph 21.9 mph N/A Snow Light Snow
9:53 PM 30.2 °F 19.8 °F 28.4 °F 93% 30.14 in 3.0 mi NNW 13.8 mph - N/A Snow Light Snow
9:54 PM 30.2 °F 19.8 °F 28.4 °F 93% 30.14 in 3.0 mi NNW 13.8 mph - N/A Snow Light Snow
9:55 PM 30.7 °F 20.4 °F 28.2 °F 90% 30.14 in 3.0 mi NW 13.8 mph - 0.00 in Snow Light Snow
9:57 PM 30.2 °F 19.3 °F 28.4 °F 93% 30.14 in 2.5 mi NNW 15.0 mph - N/A Snow Light Snow
10:20 PM 30.2 °F 18.5 °F 28.4 °F 93% 30.13 in 3.0 mi NW 17.3 mph 23.0 mph N/A Snow Light Snow
10:32 PM 30.2 °F 17.8 °F 28.4 °F 93% 30.12 in 4.0 mi NW 19.6 mph 26.5 mph N/A Snow Light Snow
10:43 PM 30.2 °F 18.1 °F 28.4 °F 93% 30.12 in 5.0 mi NW 18.4 mph - N/A Snow Light Snow
10:55 PM 30.4 °F 18.4 °F 28.4 °F 92% 30.11 in 6.0 mi NW 18.4 mph 25.3 mph 0.00 in Snow Light Snow
11:02 PM 30.2 °F 18.9 °F 28.4 °F 93% 30.11 in 6.0 mi NW 16.1 mph 25.3 mph N/A Snow Light Snow
11:07 PM 30.2 °F 18.5 °F 28.4 °F 93% 30.11 in 4.0 mi NW 17.3 mph 25.3 mph N/A Snow Light Snow
11:13 PM 30.2 °F 18.1 °F 28.4 °F 93% 30.11 in 3.0 mi NW 18.4 mph 25.3 mph N/A Snow Light Snow
11:17 PM 30.2 °F 18.1 °F 28.4 °F 93% 30.10 in 2.5 mi NW 18.4 mph 28.8 mph N/A Snow Light Snow
11:31 PM 30.2 °F 18.1 °F 28.4 °F 93% 30.09 in 2.5 mi NW 18.4 mph 27.6 mph N/A Snow Light Snow
11:37 PM 30.2 °F 18.9 °F 28.4 °F 93% 30.09 in 3.0 mi NNW 16.1 mph - N/A Snow Light Snow
11:38 PM 30.2 °F 18.9 °F 28.4 °F 93% 30.09 in 3.0 mi NNW 16.1 mph - N/A Snow Light Snow
11:40 PM 30.2 °F 18.5 °F 28.4 °F 93% 30.09 in 4.0 mi NW 17.3 mph - N/A Snow Light Snow
11:44 PM 30.2 °F 18.5 °F 28.4 °F 93% 30.09 in 5.0 mi NW 17.3 mph 23.0 mph N/A Snow Light Snow
11:55 PM 30.7 °F 18.5 °F 28.0 °F 90% 30.09 in 5.0 mi NNW 19.6 mph - 0.00 in Snow Light Snow